Location: Saint-Maurice-d�Ard�che
(44.5216°N, 4.4002°E)
Time: 16:19:29
(UTC+00:00)

S3M - Pass Details

Date: 30 March 2020
Orbit: 948 x 1005 km, 83.0° (Epoch: 04 June)

Event Time Altitude Azimuth Distance (km) Brightness Sun altitude
Rises 18:56:05 0° 191° (SSW) 3,700 7.0 -9.3°
Reaches altitude 10° 18:58:35 10° 193° (SSW) 2,760 6.4 -9.7°
Maximum altitude 19:04:56 75° 279° (W) 1,042 4.3 -10.8°
Drops below altitude 10° 19:11:23 10° 5° (N) 2,790 6.6 -11.9°
Sets 19:13:56 0° 7° (N) 3,743 7.2 -12.3°
